GW1766 Weather Reports


Display with metric or nautical units.
time (UTC)temp
F
wind
direction
speed
MPH
gust
MPH
rain 1hr
in
rain 24hr
in
rain mn
in
humidity
%
barometer
mb
20260906182051 83 0 0.0 0.0 0.00 0.00 0.00 77 1017.6
20260906181604 82 0 0.0 0.0 0.00 0.00 0.00 79 1017.8
20260906181051 82 0 0.0 0.0 0.00 0.00 0.00 78 1017.8
20260906180551 82 0 0.0 0.0 0.00 0.00 0.00 81 1017.8
20260906180100 81 0 0.0 0.0 0.00 0.00 0.00 81 1017.6
20260906175551 81 0 0.0 0.0 0.00 0.00 0.00 82 1017.2
20260906175054 81 0 0.0 0.0 0.00 0.00 0.00 82 1017.2
20260906174552 81 0 0.0 0.0 0.00 0.00 0.00 82 1017.4
20260906174050 80 0 0.0 2.0 0.00 0.00 0.00 85 1017.4
20260906173551 80 0 0.0 2.0 0.00 0.00 0.00 85 1017.4
20260906173119 80 0 0.0 0.0 0.00 0.00 0.00 86 1017.4
20260906172552 80 0 0.0 0.0 0.00 0.00 0.00 85 1017.6
20260906172051 80 0 0.0 0.0 0.00 0.00 0.00 88 1017.7
20260906171601 80 0 0.0 0.0 0.00 0.00 0.00 88 1017.9
20260906171052 79 0 0.0 0.0 0.00 0.00 0.00 88 1018.0
20260906170551 79 0 0.0 2.0 0.00 0.00 0.00 89 1017.9
20260906170106 79 0 0.0 2.0 0.00 0.00 0.00 89 1017.9
20260906165551 79 0 0.0 0.0 0.00 0.00 0.00 89 1017.8
20260906165051 79 0 0.0 0.0 0.00 0.00 0.00 89 1017.7
20260906164600 79 0 0.0 1.0 0.00 0.00 0.00 89 1017.7
20260906164053 79 0 0.0 1.0 0.00 0.00 0.00 89 1017.8
20260906163552 79 0 0.0 3.0 0.00 0.00 0.00 89 1017.6
20260906163101 78 330 0.0 3.0 0.00 0.00 0.00 89 1017.5
20260906162554 78 0 0.0 1.0 0.00 0.00 0.00 90 1017.8
20260906162053 78 0 0.0 2.0 0.00 0.00 0.00 90 1017.9
20260906161601 78 0 0.0 2.0 0.00 0.00 0.00 90 1018.0
20260906161054 78 0 0.0 2.0 0.00 0.00 0.00 90 1018.2
20260906160554 78 0 0.0 1.0 0.00 0.00 0.00 90 1018.2
20260906160058 78 0 0.0 4.0 0.00 0.00 0.00 90 1018.2
20260906155553 78 0 0.0 4.0 0.00 0.00 0.00 91 1018.2
20260906155053 78 0 0.0 4.0 0.00 0.00 0.00 91 1018.4
20260906154604 78 360 0.0 3.0 0.00 0.00 0.00 91 1018.2
20260906154053 78 0 0.0 4.0 0.00 0.00 0.00 91 1018.2
20260906153553 78 360 0.0 5.0 0.00 0.00 0.00 91 1018.3
20260906153103 78 360 1.0 5.0 0.00 0.00 0.00 91 1018.2
20260906152554 78 360 0.0 2.0 0.00 0.00 0.00 91 1018.3
20260906152054 77 360 0.0 2.0 0.00 0.00 0.00 91 1017.7
20260906151601 77 0 0.0 2.0 0.00 0.00 0.00 91 1017.6
20260906151053 77 0 0.0 2.0 0.00 0.00 0.00 92 1017.5
20260906150553 77 0 0.0 0.0 0.00 0.00 0.00 92 1017.4
20260906150101 77 0 0.0 0.0 0.00 0.00 0.00 92 1017.5
20260906145553 77 0 0.0 0.0 0.00 0.00 0.00 92 1017.5
20260906145057 77 0 0.0 0.0 0.00 0.00 0.00 92 1017.6
20260906144602 77 0 0.0 0.0 0.00 0.00 0.00 92 1017.6
20260906144053 77 0 0.0 0.0 0.00 0.00 0.00 92 1017.7
20260906143553 77 0 0.0 0.0 0.00 0.00 0.00 92 1017.6
20260906143057 76 0 0.0 0.0 0.00 0.00 0.00 92 1017.5
20260906142553 76 0 0.0 0.0 0.00 0.00 0.00 92 1017.5
20260906142054 76 0 0.0 0.0 0.00 0.00 0.00 92 1017.6
20260906141600 76 0 0.0 0.0 0.00 0.00 0.00 92 1017.5
20260906141053 76 0 0.0 0.0 0.00 0.00 0.00 93 1017.5
20260906140553 76 0 0.0 0.0 0.00 0.00 0.00 93 1017.5
20260906135553 76 0 0.0 0.0 0.00 0.00 0.00 93 1017.8
20260906135052 76 0 0.0 1.0 0.00 0.00 0.00 93 1017.8
20260906134607 76 0 0.0 1.0 0.00 0.00 0.00 93 1017.9
20260906134053 75 85 0.0 2.0 0.00 0.00 0.00 93 1018.1
20260906133552 75 0 0.0 2.0 0.00 0.00 0.00 93 1018.1
20260906133119 75 0 0.0 2.0 0.00 0.00 0.00 93 1018.2
20260906132553 75 0 0.0 0.0 0.00 0.00 0.00 93 1018.0
20260906132052 75 0 0.0 0.0 0.00 0.00 0.00 93 1018.0
20260906131603 75 0 0.0 0.0 0.00 0.00 0.00 93 1017.9
20260906131052 75 0 0.0 0.0 0.00 0.00 0.00 93 1018.0
20260906130554 75 0 0.0 1.0 0.00 0.00 0.00 93 1017.8
20260906130112 75 0 0.0 2.0 0.00 0.00 0.00 93 1017.8
20260906125553 75 0 0.0 2.0 0.00 0.00 0.00 93 1017.8
20260906125052 75 88 0.0 2.0 0.00 0.00 0.00 93 1017.6
20260906124555 75 0 0.0 2.0 0.00 0.00 0.00 93 1017.6
20260906124053 75 0 0.0 2.0 0.00 0.00 0.00 93 1017.5
20260906123553 75 0 0.0 0.0 0.00 0.00 0.00 93 1017.5
20260906123104 75 0 0.0 0.0 0.00 0.00 0.00 93 1017.6
20260906122556 75 0 0.0 0.0 0.00 0.00 0.00 93 1017.6
20260906122053 75 0 0.0 0.0 0.00 0.00 0.00 93 1017.5
20260906121604 75 0 0.0 0.0 0.00 0.00 0.00 93 1017.4
20260906121052 75 0 0.0 0.0 0.00 0.00 0.00 93 1017.3
20260906120554 75 0 0.0 0.0 0.00 0.00 0.00 93 1017.3
20260906115553 75 0 0.0 0.0 0.00 0.00 0.00 93 1017.1
20260906115051 75 0 0.0 0.0 0.00 0.00 0.00 93 1017.1
20260906114554 75 0 0.0 0.0 0.00 0.00 0.00 93 1017.0
20260906114055 75 0 0.0 0.0 0.00 0.00 0.00 93 1017.0
20260906113552 75 0 0.0 0.0 0.00 0.00 0.00 93 1016.9
20260906113103 75 0 0.0 0.0 0.00 0.00 0.00 93 1017.0
20260906112552 75 0 0.0 0.0 0.00 0.00 0.00 93 1017.0
20260906112053 75 0 0.0 0.0 0.00 0.00 0.00 93 1017.0
20260906111559 75 0 0.0 0.0 0.00 0.00 0.00 93 1016.9
20260906111056 75 0 0.0 0.0 0.00 0.00 0.00 93 1016.9
20260906110552 75 0 0.0 0.0 0.00 0.00 0.00 93 1016.8
20260906105552 75 0 0.0 0.0 0.00 0.00 0.00 93 1016.7
20260906105053 75 0 0.0 0.0 0.00 0.00 0.00 93 1016.7
20260906104557 75 0 0.0 0.0 0.00 0.00 0.00 93 1016.7
20260906104053 75 0 0.0 0.0 0.00 0.00 0.00 93 1016.7
20260906103552 75 0 0.0 0.0 0.00 0.00 0.00 93 1016.6
20260906103101 75 0 0.0 0.0 0.00 0.00 0.00 93 1016.8
20260906102552 75 0 0.0 0.0 0.00 0.00 0.00 93 1016.7
20260906102052 75 0 0.0 0.0 0.00 0.00 0.00 93 1016.7
20260906101606 75 0 0.0 0.0 0.00 0.00 0.00 92 1016.6
20260906101054 75 0 0.0 0.0 0.00 0.00 0.00 92 1016.5
20260906100557 75 0 0.0 0.0 0.00 0.00 0.00 92 1016.5
20260906100103 76 0 0.0 0.0 0.00 0.00 0.00 92 1016.4
20260906095552 76 0 0.0 0.0 0.00 0.00 0.00 92 1016.4
20260906095053 76 0 0.0 0.0 0.00 0.00 0.00 92 1016.4
20260906094610 76 0 0.0 0.0 0.00 0.00 0.00 92 1016.4
20260906094053 76 0 0.0 0.0 0.00 0.00 0.00 92 1016.4
20260906093553 76 0 0.0 0.0 0.00 0.00 0.00 92 1016.5
20260906093118 76 0 0.0 0.0 0.00 0.00 0.00 92 1016.6
20260906092555 76 0 0.0 0.0 0.00 0.00 0.00 92 1016.7
20260906092053 76 0 0.0 0.0 0.00 0.00 0.00 92 1016.7
20260906091601 76 0 0.0 0.0 0.00 0.00 0.00 92 1016.8
20260906091054 76 0 0.0 0.0 0.00 0.00 0.00 92 1016.9
20260906090553 76 0 0.0 0.0 0.00 0.00 0.00 92 1017.0
20260906090138 76 0 0.0 0.0 0.00 0.00 0.00 92 1016.8
20260906085556 76 0 0.0 0.0 0.00 0.00 0.00 92 1016.7
20260906085052 76 0 0.0 0.0 0.00 0.00 0.00 92 1016.7
20260906084627 76 0 0.0 0.0 0.00 0.00 0.00 92 1016.7
20260906084051 76 0 0.0 0.0 0.00 0.00 0.00 91 1016.7
20260906083553 76 0 0.0 0.0 0.00 0.00 0.00 91 1016.6
20260906083103 76 0 0.0 0.0 0.00 0.00 0.00 91 1016.6
20260906082551 76 0 0.0 0.0 0.00 0.00 0.00 91 1016.6
20260906082053 76 0 0.0 0.0 0.00 0.00 0.00 91 1016.6
20260906081603 76 0 0.0 0.0 0.00 0.00 0.00 91 1016.6
20260906081052 77 0 0.0 0.0 0.00 0.00 0.00 91 1016.4
20260906080553 77 0 0.0 0.0 0.00 0.00 0.00 91 1016.4
20260906080110 77 0 0.0 0.0 0.00 0.00 0.00 91 1016.3
20260906075552 77 0 0.0 2.0 0.00 0.00 0.00 91 1016.4
20260906075052 77 0 0.0 3.0 0.00 0.00 0.00 91 1016.4
20260906074605 77 0 1.0 3.0 0.00 0.00 0.00 91 1016.5
20260906074052 77 0 0.0 2.0 0.00 0.00 0.00 91 1016.5
20260906073552 77 0 0.0 2.0 0.00 0.00 0.00 91 1016.5
20260906073101 77 0 1.0 2.0 0.00 0.00 0.00 91 1016.3
20260906072554 77 0 0.0 0.0 0.00 0.00 0.00 90 1016.5
20260906072053 77 0 0.0 2.0 0.00 0.00 0.00 90 1016.5
20260906071603 77 0 0.0 3.0 0.00 0.00 0.00 90 1016.5
20260906071053 77 93 0.0 3.0 0.00 0.00 0.00 90 1016.5
20260906070556 77 0 0.0 2.0 0.00 0.00 0.00 90 1016.5
20260906065552 77 0 0.0 2.0 0.00 0.00 0.00 90 1016.6
20260906065053 77 93 0.0 2.0 0.00 0.00 0.00 90 1016.6
20260906064559 77 0 0.0 3.0 0.00 0.00 0.00 90 1016.6
20260906064052 77 107 1.0 3.0 0.00 0.00 0.00 90 1016.6
20260906063553 77 0 0.0 2.0 0.00 0.00 0.00 90 1016.6
20260906063104 77 0 0.0 2.0 0.00 0.00 0.00 90 1016.8
20260906062551 77 67 0.0 2.0 0.00 0.00 0.00 90 1016.8
20260906062052 78 0 0.0 3.0 0.00 0.00 0.00 90 1016.9
20260906061607 78 0 0.0 3.0 0.00 0.00 0.00 90 1016.7
20260906061052 78 0 0.0 2.0 0.00 0.00 0.00 90 1016.7
20260906060556 78 0 0.0 2.0 0.00 0.00 0.00 90 1016.7
20260906060103 78 81 0.0 2.0 0.00 0.00 0.00 90 1016.7
20260906055553 78 60 0.0 2.0 0.00 0.00 0.00 90 1016.8
20260906055055 78 0 0.0 2.0 0.00 0.00 0.00 90 1016.6
20260906054605 78 0 0.0 2.0 0.00 0.00 0.00 90 1016.6
20260906054054 78 96 0.0 2.0 0.00 0.00 0.00 90 1016.7
20260906053552 78 0 0.0 2.0 0.00 0.00 0.00 90 1016.7
20260906053119 78 0 0.0 2.0 0.00 0.00 0.00 90 1016.7
20260906052552 78 0 0.0 2.0 0.00 0.00 0.00 90 1016.6
20260906052052 78 0 0.0 2.0 0.00 0.00 0.00 90 1016.6
20260906051600 78 99 1.0 2.0 0.00 0.00 0.00 90 1016.6
20260906051055 78 89 0.0 2.0 0.00 0.00 0.00 89 1016.6
20260906050555 78 0 0.0 0.0 0.00 0.00 0.00 89 1016.7
20260906050059 78 0 0.0 2.0 0.00 0.00 0.00 89 1016.6
20260906045553 78 0 0.0 2.0 0.00 0.00 0.00 89 1016.7
20260906045053 78 0 0.0 2.0 0.00 0.00 0.00 89 1016.6
20260906044621 78 0 0.0 2.0 0.00 0.00 0.00 89 1016.6
20260906044052 78 69 0.0 2.0 0.00 0.00 0.00 89 1016.6
20260906043552 78 69 0.0 2.0 0.00 0.00 0.00 89 1016.7
20260906043103 79 69 0.0 2.0 0.00 0.00 0.00 89 1016.7
20260906042552 79 0 0.0 2.0 0.00 0.00 0.00 89 1016.8
20260906042052 79 0 0.0 2.0 0.00 0.00 0.00 89 1016.7
20260906041601 79 0 0.0 2.0 0.00 0.00 0.00 89 1016.9
20260906041051 79 0 0.0 2.0 0.00 0.00 0.00 89 1016.8
20260906040551 79 86 0.0 3.0 0.00 0.00 0.00 89 1016.7
20260906040105 79 0 0.0 3.0 0.00 0.00 0.00 89 1016.7
20260906035558 79 113 0.0 2.0 0.00 0.00 0.00 89 1016.8
20260906035052 79 0 0.0 2.0 0.00 0.00 0.00 89 1016.8
20260906034600 79 95 0.0 2.0 0.00 0.00 0.00 88 1017.0
20260906034054 79 0 0.0 0.0 0.00 0.00 0.00 88 1016.9
20260906033554 79 0 0.0 0.0 0.00 0.00 0.00 88 1016.8
20260906033109 79 0 0.0 0.0 0.00 0.00 0.00 88 1016.7
20260906032551 79 0 0.0 0.0 0.00 0.00 0.00 88 1016.6
20260906032053 79 0 0.0 0.0 0.00 0.00 0.00 88 1016.7
20260906031605 79 0 0.0 0.0 0.00 0.00 0.00 88 1016.7
20260906031052 79 0 0.0 2.0 0.00 0.00 0.00 87 1016.6
20260906030553 79 0 0.0 2.0 0.00 0.00 0.00 87 1016.5
20260906030101 80 80 0.0 2.0 0.00 0.00 0.00 87 1016.6
20260906025552 80 86 0.0 1.0 0.00 0.00 0.00 87 1016.5
20260906025052 80 0 0.0 0.0 0.00 0.00 0.00 87 1016.5
20260906024623 80 0 0.0 0.0 0.00 0.00 0.00 86 1016.5
20260906024055 80 0 0.0 0.0 0.00 0.00 0.00 86 1016.4
20260906023553 80 0 0.0 0.0 0.00 0.00 0.00 86 1016.4
20260906023106 80 0 0.0 0.0 0.00 0.00 0.00 86 1016.3
20260906022551 80 0 0.0 0.0 0.00 0.00 0.00 86 1016.3
20260906022052 80 0 0.0 1.0 0.00 0.00 0.00 85 1016.2
20260906021602 80 0 0.0 1.0 0.00 0.00 0.00 85 1016.1
20260906021051 80 0 0.0 0.0 0.00 0.00 0.00 85 1016.0
20260906020551 80 0 0.0 0.0 0.00 0.00 0.00 85 1016.0
20260906020108 80 0 0.0 0.0 0.00 0.00 0.00 85 1016.0
20260906015552 81 0 0.0 0.0 0.00 0.00 0.00 84 1015.9
20260906015052 81 0 0.0 2.0 0.00 0.00 0.00 84 1015.8
20260906014605 81 0 0.0 2.0 0.00 0.00 0.00 84 1015.9
20260906014052 81 0 0.0 1.0 0.00 0.00 0.00 84 1015.9
20260906013552 81 87 0.0 2.0 0.00 0.00 0.00 83 1015.6
20260906013109 81 0 0.0 2.0 0.00 0.00 0.00 83 1015.7
20260906012554 81 87 0.0 2.0 0.00 0.00 0.00 83 1015.7
20260906012051 81 0 0.0 2.0 0.00 0.00 0.00 83 1015.6
20260906011604 82 87 0.0 2.0 0.00 0.00 0.00 82 1015.7
20260906011119 82 0 0.0 2.0 0.00 0.00 0.00 82 1015.7
20260906010554 82 0 0.0 2.0 0.00 0.00 0.00 82 1015.6
20260906010131 82 0 0.0 2.0 0.00 0.00 0.00 82 1015.6
20260906005555 82 86 0.0 1.0 0.00 0.00 0.00 81 1015.5
20260906005054 83 0 0.0 2.0 0.00 0.00 0.00 81 1015.5
20260906004601 83 0 0.0 2.0 0.00 0.00 0.00 81 1015.4
20260906004053 83 86 0.0 1.0 0.00 0.00 0.00 81 1015.4
20260906003555 83 0 0.0 2.0 0.00 0.00 0.00 80 1015.3
20260906003101 83 0 0.0 2.0 0.00 0.00 0.00 80 1015.3
20260906002553 83 0 0.0 2.0 0.00 0.00 0.00 80 1015.2
20260906002055 84 86 0.0 2.0 0.00 0.00 0.00 79 1015.2
20260906001606 84 0 0.0 2.0 0.00 0.00 0.00 79 1015.2
20260906001054 84 0 0.0 2.0 0.00 0.00 0.00 78 1015.2
20260906000554 85 87 1.0 2.0 0.00 0.00 0.00 77 1015.2
20260906000101 85 87 1.0 2.0 0.00 0.00 0.00 76 1015.3
20260905235556 85 0 0.0 2.0 0.00 0.00 0.00 75 1015.2
20260905235054 85 87 0.0 2.0 0.00 0.00 0.00 74 1015.3
20260905234600 86 88 0.0 2.0 0.00 0.00 0.00 73 1015.4
20260905234053 86 0 0.0 3.0 0.00 0.00 0.00 72 1015.3
20260905233554 86 0 0.0 3.0 0.00 0.00 0.00 71 1015.3
20260905233102 86 105 0.0 3.0 0.00 0.00 0.00 71 1015.2
20260905232558 86 64 0.0 3.0 0.00 0.00 0.00 71 1015.2
20260905232053 86 90 0.0 2.0 0.00 0.00 0.00 71 1015.1
20260905231559 87 0 0.0 3.0 0.00 0.00 0.00 71 1014.8
20260905231053 87 0 0.0 3.0 0.00 0.00 0.00 70 1014.9
20260905230557 87 360 1.0 3.0 0.00 0.00 0.00 69 1014.8
20260905230123 87 76 0.0 3.0 0.00 0.00 0.00 68 1014.9
20260905225553 87 360 0.0 4.0 0.00 0.00 0.00 68 1014.8
20260905225054 87 360 1.0 4.0 0.00 0.00 0.00 68 1014.8
20260905224603 88 71 1.0 4.0 0.00 0.00 0.00 67 1014.7
20260905224054 88 98 1.0 4.0 0.00 0.00 0.00 66 1014.7
20260905223553 88 80 1.0 3.0 0.00 0.00 0.00 66 1014.9
20260905223100 88 360 0.0 3.0 0.00 0.00 0.00 66 1014.9
20260905222554 88 96 0.0 3.0 0.00 0.00 0.00 66 1014.9
20260905222053 88 32 1.0 3.0 0.00 0.00 0.00 66 1014.9
20260905221557 88 360 1.0 3.0 0.00 0.00 0.00 66 1014.8
20260905221054 88 104 0.0 3.0 0.00 0.00 0.00 66 1014.7
20260905220553 88 91 1.0 3.0 0.00 0.00 0.00 66 1014.7
20260905220105 88 102 0.0 4.0 0.00 0.00 0.00 67 1014.7
20260905215557 88 360 1.0 4.0 0.00 0.00 0.00 66 1014.7
20260905215053 88 360 1.0 4.0 0.00 0.00 0.00 65 1014.7
20260905214602 88 0 0.0 4.0 0.00 0.00 0.00 65 1014.7
20260905214053 88 0 1.0 4.0 0.00 0.00 0.00 64 1014.7
20260905213553 88 116 0.0 2.0 0.00 0.00 0.00 65 1014.6
20260905213107 88 0 0.0 3.0 0.00 0.00 0.00 66 1014.7
20260905212553 87 101 0.0 3.0 0.00 0.00 0.00 65 1014.7
20260905212054 87 111 0.0 3.0 0.00 0.00 0.00 65 1014.6
20260905211603 87 93 1.0 3.0 0.00 0.00 0.00 65 1014.6
20260905211056 87 59 0.0 4.0 0.00 0.00 0.00 65 1014.6
20260905210556 87 156 1.0 4.0 0.00 0.00 0.00 65 1014.6
20260905210105 86 0 1.0 4.0 0.00 0.00 0.00 64 1014.7
20260905205555 86 151 0.0 4.0 0.00 0.00 0.00 65 1014.7
20260905205057 86 58 1.0 4.0 0.00 0.00 0.00 66 1014.8
20260905204612 85 92 1.0 4.0 0.00 0.00 0.00 68 1014.9
20260905204057 85 0 0.0 3.0 0.00 0.00 0.00 69 1014.9
20260905203553 85 0 0.0 3.0 0.00 0.00 0.00 70 1014.9
20260905203104 84 360 0.0 3.0 0.00 0.00 0.00 67 1014.7
20260905202553 84 0 0.0 4.0 0.00 0.00 0.00 67 1014.6
20260905202053 84 223 1.0 4.0 0.00 0.00 0.00 67 1014.6
20260905201610 84 0 1.0 4.0 0.00 0.00 0.00 69 1014.5
20260905201054 83 360 0.0 4.0 0.00 0.00 0.00 68 1014.6
20260905200553 83 0 0.0 3.0 0.00 0.00 0.00 66 1014.4
20260905195557 83 146 2.0 6.0 0.00 0.00 0.00 67 1013.8
20260905195053 83 208 0.0 5.0 0.00 0.00 0.00 68 1014.4
20260905194558 83 0 1.0 5.0 0.00 0.00 0.00 67 1014.4
20260905194053 83 109 1.0 3.0 0.00 0.00 0.00 67 1014.7
20260905193554 83 106 0.0 2.0 0.00 0.00 0.00 70 1015.1
20260905193104 83 94 0.0 2.0 0.00 0.00 0.00 69 1015.2
20260905192553 83 0 0.0 2.0 0.00 0.00 0.00 68 1015.3
20260905192053 83 0 0.0 3.0 0.00 0.00 0.00 69 1015.4
20260905191602 83 0 0.0 3.0 0.00 0.00 0.00 69 1015.3
20260905191053 83 0 1.0 3.0 0.00 0.00 0.00 69 1015.4
20260905190553 82 157 0.0 2.0 0.00 0.00 0.00 70 1015.4
20260905190103 82 0 0.0 2.0 0.00 0.00 0.00 71 1015.6
20260905185553 81 0 0.0 1.0 0.00 0.00 0.00 72 1015.6
20260905185056 81 87 0.0 2.0 0.00 0.00 0.00 75 1015.5
20260905184612 81 0 0.0 3.0 0.00 0.00 0.00 75 1015.8
20260905184053 81 88 0.0 3.0 0.00 0.00 0.00 73 1016.0
20260905183554 80 0 0.0 3.0 0.00 0.00 0.00 71 1016.0
20260905183115 80 75 0.0 2.0 0.00 0.00 0.00 74 1015.9
20260905182553 80 53 0.0 0.0 0.00 0.00 0.00 76 1016.2